CW9183 Weather Reports


Display with metric or nautical units.
time (UTC)temp
F
wind
direction
speed
MPH
gust
MPH
rain 1hr
in
rain 24hr
in
rain mn
in
humidity
%
barometer
mb
20260505050537 66 167 2.0 7.0 0.00 0.00 0.00 67 1015.9
20260505041548 66 336 2.0 10.0 0.00 0.00 0.00 65 1015.8
20260505041037 66 246 2.0 11.0 0.00 0.00 0.00 67 1015.8
20260505040538 66 122 3.0 11.0 0.00 0.00 0.00 66 1015.8
20260505040043 66 143 3.0 8.0 0.00 0.00 0.00 65 1015.8
20260505035536 66 167 3.0 10.0 0.00 0.00 0.00 65 1015.7
20260505035035 65 167 3.0 10.0 0.00 0.00 0.00 65 1015.7
20260505034546 65 128 3.0 10.0 0.00 0.00 0.00 65 1015.7
20260505034034 65 124 3.0 10.0 0.00 0.00 0.00 65 1015.7
20260505033534 65 148 2.0 8.0 0.00 0.00 0.00 66 1015.7
20260505033038 64 153 2.0 9.0 0.00 0.00 0.00 66 1015.7
20260505032537 64 103 3.0 9.0 0.00 0.00 0.00 66 1015.6
20260505032036 63 137 3.0 8.0 0.00 0.00 0.00 68 1015.6
20260505031553 62 138 2.0 7.0 0.00 0.00 0.00 70 1015.7
20260505031036 61 142 1.0 6.0 0.00 0.00 0.00 73 1015.7
20260505030536 61 0 0.0 4.0 0.00 0.00 0.00 74 1015.6
20260505030046 61 0 0.0 0.0 0.00 0.00 0.00 75 1015.6
20260505025536 61 0 0.0 0.0 0.00 0.00 0.00 74 1015.5
20260505025037 61 0 0.0 0.0 0.00 0.00 0.00 75 1015.6
20260505024547 61 0 0.0 0.0 0.00 0.00 0.00 76 1015.7
20260505024037 61 0 0.0 0.0 0.00 0.00 0.00 76 1015.6
20260505023538 61 0 0.0 0.0 0.00 0.00 0.00 76 1015.6
20260505023042 61 0 0.0 0.0 0.00 0.00 0.00 75 1015.5
20260505022536 62 0 0.0 0.0 0.00 0.00 0.00 75 1015.5
20260505022034 62 0 0.0 0.0 0.00 0.00 0.00 74 1015.5
20260505021550 62 0 0.0 2.0 0.00 0.00 0.00 75 1015.5
20260505021033 62 0 0.0 3.0 0.00 0.00 0.00 74 1015.5
20260505020535 62 168 0.0 4.0 0.00 0.00 0.00 74 1015.4
20260505020047 62 168 1.0 4.0 0.00 0.00 0.00 74 1015.3
20260505015536 62 0 0.0 2.0 0.00 0.00 0.00 74 1015.4
20260505015035 62 168 1.0 2.0 0.00 0.00 0.00 74 1015.3
20260505014551 62 168 0.0 2.0 0.00 0.00 0.00 73 1015.3
20260505014037 62 168 1.0 4.0 0.00 0.00 0.00 74 1015.4
20260505013535 62 168 1.0 4.0 0.00 0.00 0.00 72 1015.3
20260505013043 62 168 1.0 4.0 0.00 0.00 0.00 73 1015.3
20260505012536 62 168 1.0 4.0 0.00 0.00 0.00 73 1015.4
20260505012033 62 168 1.0 5.0 0.00 0.00 0.00 72 1015.4
20260505011541 62 169 2.0 5.0 0.00 0.00 0.00 71 1015.3
20260505011034 63 169 2.0 4.0 0.00 0.00 0.00 70 1015.2
20260505010536 63 169 2.0 4.0 0.00 0.00 0.00 68 1015.3
20260505010108 64 169 1.0 4.0 0.00 0.00 0.00 66 1015.2
20260505005534 64 0 0.0 1.0 0.00 0.00 0.00 63 1015.2
20260505005034 65 0 0.0 1.0 0.00 0.00 0.00 63 1015.1
20260505004549 65 0 0.0 0.0 0.00 0.00 0.00 62 1015.1
20260505004038 66 0 0.0 1.0 0.00 0.00 0.00 61 1015.1
20260505003535 66 0 0.0 1.0 0.00 0.00 0.00 60 1015.0
20260505003054 66 0 0.0 2.0 0.00 0.00 0.00 60 1015.0
20260505002533 67 0 0.0 2.0 0.00 0.00 0.00 59 1014.9
20260505002034 67 169 0.0 2.0 0.00 0.00 0.00 58 1014.9
20260505001547 68 0 1.0 3.0 0.00 0.00 0.00 57 1015.0
20260505001035 68 169 1.0 4.0 0.00 0.00 0.00 57 1015.0
20260505000534 69 169 2.0 4.0 0.00 0.00 0.00 55 1015.0
20260505000048 70 0 0.0 0.0 0.00 0.00 0.00 52 1015.0
20260504235536 71 0 0.0 0.0 0.00 0.00 0.00 51 1015.0
20260504235032 72 0 0.0 0.0 0.00 0.00 0.00 49 1014.9
20260504234541 72 0 0.0 0.0 0.00 0.00 0.00 49 1014.9
20260504234035 72 0 0.0 1.0 0.00 0.00 0.00 46 1014.9
20260504233538 73 0 0.0 5.0 0.00 0.00 0.00 46 1014.8
20260504233103 73 169 0.0 5.0 0.00 0.00 0.00 47 1014.7
20260504232535 73 169 3.0 5.0 0.00 0.00 0.00 46 1014.6
20260504232033 74 145 0.0 5.0 0.00 0.00 0.00 44 1014.6
20260504231549 74 136 1.0 11.0 0.00 0.00 0.00 44 1014.6
20260504231031 74 158 2.0 11.0 0.00 0.00 0.00 43 1014.6
20260504230533 75 163 5.0 11.0 0.00 0.00 0.00 40 1014.4
20260504230054 76 156 0.0 3.0 0.00 0.00 0.00 35 1014.3
20260504225539 76 0 0.0 4.0 0.00 0.00 0.00 35 1014.4
20260504225035 76 0 0.0 7.0 0.00 0.00 0.00 36 1014.4
20260504224545 76 199 2.0 7.0 0.00 0.00 0.00 37 1014.4
20260504224033 76 138 3.0 10.0 0.00 0.00 0.00 33 1014.6
20260504223533 76 156 2.0 10.0 0.00 0.00 0.00 33 1014.6
20260504223045 76 144 2.0 8.0 0.00 0.00 0.00 33 1014.6
20260504222535 76 180 2.0 12.0 0.00 0.00 0.00 36 1014.6
20260504222033 77 144 5.0 12.0 0.00 0.00 0.00 32 1014.7
20260504221540 77 157 1.0 10.0 0.00 0.00 0.00 31 1014.7
20260504221035 77 14 3.0 10.0 0.00 0.00 0.00 30 1014.8
20260504220532 77 220 1.0 8.0 0.00 0.00 0.00 32 1014.8
20260504220051 77 311 3.0 10.0 0.00 0.00 0.00 32 1014.7
20260504215536 77 306 3.0 10.0 0.00 0.00 0.00 31 1014.7
20260504215036 77 349 4.0 13.0 0.00 0.00 0.00 31 1014.9
20260504214548 77 317 4.0 14.0 0.00 0.00 0.00 30 1014.9
20260504214032 77 291 4.0 14.0 0.00 0.00 0.00 30 1015.0
20260504213536 76 0 3.0 9.0 0.00 0.00 0.00 32 1014.9
20260504213047 76 329 3.0 13.0 0.00 0.00 0.00 30 1014.9
20260504212533 76 318 4.0 13.0 0.00 0.00 0.00 31 1015.0
20260504212033 76 140 1.0 12.0 0.00 0.00 0.00 33 1014.9
20260504211544 76 274 3.0 12.0 0.00 0.00 0.00 32 1015.1
20260504211035 76 119 3.0 11.0 0.00 0.00 0.00 34 1015.0
20260504210536 76 348 1.0 14.0 0.00 0.00 0.00 33 1015.0
20260504210054 76 352 5.0 14.0 0.00 0.00 0.00 32 1014.9
20260504205535 75 292 6.0 14.0 0.00 0.00 0.00 31 1014.9
20260504205033 75 198 5.0 11.0 0.00 0.00 0.00 31 1014.8
20260504204556 75 142 5.0 9.0 0.00 0.00 0.00 33 1014.9
20260504204035 75 128 4.0 12.0 0.00 0.00 0.00 33 1015.0
20260504203532 75 252 4.0 12.0 0.00 0.00 0.00 32 1015.0
20260504203053 75 281 3.0 16.0 0.00 0.00 0.00 32 1014.8
20260504202533 75 142 3.0 16.0 0.00 0.00 0.00 33 1015.0
20260504202032 74 114 6.0 13.0 0.00 0.00 0.00 32 1015.1
20260504201548 75 130 6.0 13.0 0.00 0.00 0.00 32 1015.2
20260504201035 75 142 5.0 11.0 0.00 0.00 0.00 32 1015.2
20260504200535 75 141 4.0 11.0 0.00 0.00 0.00 33 1015.3
20260504200046 75 161 2.0 13.0 0.00 0.00 0.00 34 1015.3
20260504195533 75 135 3.0 22.0 0.00 0.00 0.00 32 1015.3
20260504195034 75 117 3.0 22.0 0.00 0.00 0.00 33 1015.4
20260504194546 75 163 7.0 15.0 0.00 0.00 0.00 33 1015.3
20260504194038 76 290 3.0 14.0 0.00 0.00 0.00 31 1015.5
20260504193533 76 304 5.0 13.0 0.00 0.00 0.00 29 1015.4
20260504193048 76 336 5.0 13.0 0.00 0.00 0.00 29 1015.5
20260504192536 75 296 2.0 13.0 0.00 0.00 0.00 30 1015.5
20260504192036 75 338 4.0 12.0 0.00 0.00 0.00 29 1015.5
20260504191542 75 294 3.0 13.0 0.00 0.00 0.00 29 1015.6
20260504191033 75 237 2.0 18.0 0.00 0.00 0.00 31 1015.7
20260504190537 75 158 3.0 18.0 0.00 0.00 0.00 30 1015.7
20260504190112 75 274 6.0 12.0 0.00 0.00 0.00 30 1015.8
20260504185534 75 297 3.0 13.0 0.00 0.00 0.00 29 1015.9
20260504185033 75 120 1.0 13.0 0.00 0.00 0.00 28 1015.8
20260504184550 74 283 5.0 15.0 0.00 0.00 0.00 29 1016.0
20260504184035 74 290 9.0 15.0 0.00 0.00 0.00 30 1016.0
20260504183535 74 322 8.0 15.0 0.00 0.00 0.00 31 1016.2
20260504183047 74 301 6.0 14.0 0.00 0.00 0.00 29 1016.1
20260504182532 74 290 6.0 12.0 0.00 0.00 0.00 29 1016.2
20260504182036 74 319 5.0 11.0 0.00 0.00 0.00 33 1016.1
20260504181551 74 300 4.0 11.0 0.00 0.00 0.00 32 1016.1
20260504181036 74 308 5.0 12.0 0.00 0.00 0.00 32 1016.3
20260504180537 73 259 2.0 14.0 0.00 0.00 0.00 32 1016.4
20260504180045 73 284 7.0 14.0 0.00 0.00 0.00 34 1016.4
20260504175532 73 298 6.0 11.0 0.00 0.00 0.00 34 1016.6
20260504175033 73 319 4.0 10.0 0.00 0.00 0.00 33 1016.5
20260504174553 73 298 4.0 10.0 0.00 0.00 0.00 32 1016.5
20260504174033 73 217 4.0 12.0 0.00 0.00 0.00 33 1016.6
20260504173533 73 360 5.0 12.0 0.00 0.00 0.00 34 1016.7
20260504173047 72 122 4.0 10.0 0.00 0.00 0.00 35 1016.7
20260504172534 72 123 4.0 10.0 0.00 0.00 0.00 36 1016.8
20260504172032 72 89 1.0 13.0 0.00 0.00 0.00 37 1016.8
20260504171549 72 327 4.0 13.0 0.00 0.00 0.00 34 1016.7
20260504171038 72 266 3.0 12.0 0.00 0.00 0.00 36 1017.0
20260504170535 71 298 3.0 13.0 0.00 0.00 0.00 36 1016.8
20260504151032 67 336 5.0 9.0 0.00 0.00 0.00 44 1017.8
20260504150535 66 316 3.0 7.0 0.00 0.00 0.00 44 1018.0
20260504141035 63 299 1.0 11.0 0.00 0.00 0.00 52 1018.0
20260504140549 63 351 5.0 11.0 0.00 0.00 0.00 53 1018.1
20260504130536 61 290 4.0 11.0 0.00 0.00 0.00 60 1018.8
20260504110540 51 0 0.0 0.0 0.00 0.00 0.00 84 1019.2
20260504100534 50 0 0.0 0.0 0.00 0.00 0.00 84 1019.0
20260504081554 51 115 0.0 2.0 0.00 0.00 0.00 79 1019.3
20260504081037 51 0 0.0 2.0 0.00 0.00 0.00 79 1019.3
20260504080537 51 0 0.0 2.0 0.00 0.00 0.00 79 1019.4
20260504060106 49 0 0.0 4.0 0.00 0.00 0.00 86 1019.9